Flag for U.S.A. Weather past 2 weeks in Key West, Florida, U.S.A.

Now
69 °F

Light rain. Mostly cloudy.


Feels Like: 69 °F
Forecast: 69 / 76 °F
Wind: 16 mph from North

Location: Key West International Airport

Current Time: Dec 25, 2014 at 4:28:49 AM

Latest Report: Dec 25, 2014 at 4:00 AM


Visibility: 10 mi

Pressure: 30.03 "Hg

Humidity: 87%

Dew point: 65 °F

Location of Key WestLocation

Historic Weather in Key West — Graph

°F

Key West temperature yesterday

Maximum temperature yesterday: 81 °F (at 10:53 AM)
Minimum temperature yesterday: 76 °F (at 2:04 PM)
Average temperature yesterday: 78 °F

Past Weeks' High & Low Weather Summary

 TemperatureHumidityPressure
High81 °F (Dec 23, 11:53 AM)94% (Dec 19, 5:53 AM)30.25 "Hg (Dec 19, 5:53 AM)
Low57 °F (Dec 11, 1:53 AM)40% (Dec 10, 9:53 AM)29.88 "Hg (Dec 23, 5:53 PM)
Average70 °F75%30.08 "Hg
* Reported Dec 10 2:53 AM — Dec 25 2:53 AM, Key West, Weather by CustomWeather, © 2014

Note: Actual official high and low records may vary slightly from our data, if they occured in-between our weather recording intervals... More about our weather records

Advertising

Key West weather history for previous 24 hours

 ConditionsComfort  
Time TempWeatherWind HumidityBarometerVisibility
2:53 AM
Dec 25
71 °FLight rain. Fog.15 mph93%30.01 "Hg6 mi
1:53 AM78 °FOvercast.14 mph93%29.99 "Hg10 mi
12:53 AM78 °FPartly cloudy.15 mph93%29.98 "Hg10 mi
11:53 PM
Dec 24
78 °FPassing clouds.14 mph90%29.99 "Hg10 mi
10:53 PM77 °FThunderstorms. Passing clouds.10 mph90%29.98 "Hg10 mi
9:53 PM79 °FThundershowers. Fog.10 mph90%29.98 "Hg6 mi
8:53 PM79 °FMostly cloudy.8 mph90%29.98 "Hg10 mi
7:53 PM78 °FPassing clouds.9 mph90%29.96 "Hg10 mi
6:53 PM78 °FPassing clouds.8 mph90%29.95 "Hg10 mi
5:53 PM77 °FPassing clouds.7 mph90%29.93 "Hg10 mi
4:53 PM78 °FPartly sunny.6 mph87%29.92 "Hg10 mi
3:53 PM78 °FPassing clouds.7 mph87%29.91 "Hg10 mi
2:53 PM76 °FThundershowers. Mostly cloudy.3 mph91%29.90 "Hg9 mi
2:04 PM76 °FStrong thunderstorms. Fog.12 mph94%29.92 "Hg1 mi
2:00 PM78 °FStrong thunderstorms. Fog.23 mph90%29.95 "Hg1 mi
12:53 PM80 °FPartly sunny.12 mph81%29.93 "Hg10 mi
11:53 AM80 °FScattered clouds.15 mph81%29.94 "Hg10 mi
10:53 AM81 °FPassing clouds.16 mph79%29.96 "Hg10 mi
9:53 AM80 °FSunny.15 mph81%29.96 "Hg10 mi
8:53 AM79 °FPassing clouds.14 mph82%29.93 "Hg10 mi
8:01 AM78 °FBroken clouds.15 mph84%29.93 "Hg10 mi
7:53 AM78 °FScattered clouds.16 mph84%29.92 "Hg10 mi
6:53 AM78 °FPassing clouds.12 mph84%29.91 "Hg10 mi
5:53 AM78 °FPartly cloudy.14 mph82%29.90 "Hg10 mi
4:53 AM77 °FClear.9 mph88%29.89 "Hg10 mi
Weather by CustomWeather, © 2014

See weather overviewHow to use our weather pages